Location: Carson
(33.8314°N, 118.2820°W)
Time: 13:16:39
(UTC+00:00)

CENTAUR R/B - Pass Details

Date: 23 November 2020
Orbit: 750 x 1438 km, 63.4° (Epoch: 11 January)

Event Time Altitude Azimuth Distance (km) Brightness Sun altitude
Rises 14:00:15 0° 326° (NNW) 4,289 5.4 -7.2°
Reaches altitude 10° 14:03:00 10° 325° (NW) 3,386 4.8 -6.7°
Maximum altitude 14:11:24 70° 244° (WSW) 1,500 3.4 -5.0°
Drops below altitude 10° 14:20:12 10° 162° (SSE) 3,526 6.0 -3.3°
Sets 14:23:07 0° 160° (SSE) 4,474 6.6 -2.8°
